Home   Weather   Portsmouth   Past weeks

Flag for United Kingdom Past Weather in Portsmouth, England, United Kingdom — Yesterday and Last 2 Weeks

Now
46 °F

Fog.


Feels Like: 46 °F
Forecast: 58 / 64 °F
Wind: 1 mph from Southeast

Location: Southampton / Weather Centre

Current Time: Sep 28, 2016 at 6:20:06 AM

Latest Report: Sep 28, 2016 at 5:50 AM


Visibility: N/A

Pressure: 30.30 "Hg

Humidity: 93%

Dew Point: 45 °F

Location of PortsmouthLocation

Past Weather in Portsmouth — Graph

°F

Portsmouth Temperature Yesterday

Maximum temperature yesterday: 64 °F (at 1:20 PM)
Minimum temperature yesterday: 57 °F (at 5:50 AM)
Average temperature yesterday: 61 °F

High & Low Weather Summary for the Past Weeks

 TemperatureHumidityPressure
High79 °F (Sep 13, 4:20 PM)100% (Sep 13, 5:50 AM)30.30 "Hg (Sep 13, 5:50 AM)
Low39 °F (Sep 23, 6:20 AM)46% (Sep 16, 3:20 PM)29.71 "Hg (Sep 14, 6:20 AM)
Average61 °F76%30.04 "Hg
* Reported Sep 12 9:20 PM — Sep 27 9:50 PM, Portsmouth, Weather by CustomWeather, © 2016

Note: Actual official high and low records may vary slightly from our data, if they occured in-between our weather recording intervals... More about our weather records

Advertising

Portsmouth Weather History for the Previous 24 Hours

Scroll right to see more
 ConditionsComfort  
Time TempWeatherWind HumidityBarometerVisibility
9:50 PM
Tue, Sep 27
59 °FPassing clouds.2 mph94%30.27 "HgN/A
9:20 PM61 °FPassing clouds.5 mph88%30.27 "HgN/A
8:50 PM61 °FPartly cloudy.6 mph94%30.24 "HgN/A
8:20 PM61 °FPassing clouds.2 mph94%30.24 "HgN/A
7:50 PM61 °FPartly cloudy.3 mph94%30.24 "HgN/A
7:20 PM61 °FPartly cloudy.6 mph94%30.24 "HgN/A
6:50 PM63 °FBroken clouds.5 mph88%30.24 "HgN/A
6:20 PM63 °FBroken clouds.5 mph88%30.21 "HgN/A
5:50 PM63 °FScattered showers. Partly sunny.8 mph83%30.21 "HgN/A
5:20 PM63 °FScattered showers. Broken clouds.8 mph83%30.21 "HgN/A
4:50 PM63 °FScattered showers. Broken clouds.8 mph83%30.21 "HgN/A
4:20 PM63 °FScattered showers. Broken clouds.14 mph88%30.21 "Hg6 mi
3:50 PM63 °FScattered showers. Broken clouds.10 mph88%30.18 "Hg6 mi
3:20 PM63 °FScattered showers. Broken clouds.10 mph88%30.18 "Hg6 mi
2:50 PM63 °FScattered showers. Broken clouds.13 mph88%30.18 "HgN/A
2:20 PM64 °FScattered showers. Broken clouds.10 mph83%30.18 "HgN/A
1:50 PM64 °FDrizzle. Broken clouds.13 mph83%30.18 "HgN/A
1:20 PM64 °FScattered showers. Broken clouds.10 mph88%30.18 "Hg6 mi
12:50 PM63 °FScattered showers. Partly sunny.9 mph94%30.18 "Hg6 mi
12:20 PM61 °FDrizzle. Partly sunny.8 mph100%30.18 "HgN/A
11:50 AM61 °FDrizzle. Partly sunny.7 mph94%30.18 "Hg2 mi
11:20 AM61 °FDrizzle. Partly sunny.7 mph94%30.18 "Hg4 mi
10:50 AM59 °FDrizzle. Partly sunny.7 mph94%30.18 "Hg4 mi
10:20 AM59 °FDrizzle. Partly sunny.7 mph94%30.18 "Hg4 mi
9:50 AM59 °FDrizzle. Partly sunny.9 mph94%30.18 "Hg4 mi
9:20 AM59 °FDrizzle. Partly sunny.7 mph94%30.15 "Hg4 mi
8:50 AM59 °FScattered showers. Broken clouds.5 mph88%30.15 "HgN/A
8:20 AM57 °FScattered showers. Broken clouds.5 mph94%30.15 "HgN/A
7:50 AM57 °FDrizzle. Broken clouds.5 mph94%30.15 "Hg6 mi
7:20 AM57 °FDrizzle. Broken clouds.6 mph94%30.15 "Hg4 mi
6:50 AM57 °FPassing clouds.6 mph94%30.15 "Hg5 mi
6:20 AM57 °FPassing clouds.6 mph94%30.15 "Hg4 mi
Weather by CustomWeather, © 2016

See weather overviewHow to use our weather pages